TimeEST,TemperatureF,Dew PointF,Humidity,Sea Level PressureIn,VisibilityMPH,Wind Direction,Wind SpeedMPH,Gust SpeedMPH,PrecipitationIn,Events,Conditions,WindDirDegrees,DateUTC
12:15 AM,28.4,23.0,80,29.97,10.0,West,8.1,-,N/A,,Clear,280,2013-02-16 05:15:00
12:35 AM,28.4,21.2,74,29.97,10.0,WNW,5.8,-,N/A,,Clear,290,2013-02-16 05:35:00
12:55 AM,28.4,21.2,74,29.96,10.0,WNW,3.5,-,N/A,,Clear,300,2013-02-16 05:55:00
1:15 AM,28.4,21.2,74,29.96,10.0,West,4.6,-,N/A,,Scattered Clouds,270,2013-02-16 06:15:00
1:55 AM,28.4,19.4,69,29.95,10.0,NNW,6.9,-,N/A,,Scattered Clouds,330,2013-02-16 06:55:00
2:15 AM,28.4,19.4,69,29.95,10.0,NNW,6.9,-,N/A,,Mostly Cloudy,330,2013-02-16 07:15:00
2:35 AM,28.4,19.4,69,29.95,10.0,NNW,5.8,-,N/A,,Overcast,340,2013-02-16 07:35:00
2:55 AM,26.6,19.4,74,29.94,10.0,NNW,4.6,-,N/A,,Mostly Cloudy,330,2013-02-16 07:55:00
3:15 AM,26.6,19.4,74,29.94,10.0,Calm,Calm,-,N/A,,Mostly Cloudy,0,2013-02-16 08:15:00
3:35 AM,26.6,19.4,74,29.94,10.0,Calm,Calm,-,N/A,,Overcast,0,2013-02-16 08:35:00
3:55 AM,26.6,19.4,74,29.93,10.0,Calm,Calm,-,N/A,,Overcast,0,2013-02-16 08:55:00
4:35 AM,26.6,19.4,74,29.92,10.0,Calm,Calm,-,N/A,,Mostly Cloudy,0,2013-02-16 09:35:00
4:55 AM,26.6,19.4,74,29.93,10.0,West,3.5,-,N/A,,Mostly Cloudy,280,2013-02-16 09:55:00
5:15 AM,26.6,19.4,74,29.92,10.0,NNW,3.5,-,N/A,,Overcast,330,2013-02-16 10:15:00
5:35 AM,26.6,21.2,80,29.93,10.0,WNW,3.5,-,N/A,,Overcast,300,2013-02-16 10:35:00
6:35 AM,26.6,19.4,74,29.91,10.0,NW,4.6,-,N/A,,Scattered Clouds,320,2013-02-16 11:35:00
6:55 AM,24.8,19.4,80,29.91,10.0,NNW,4.6,-,N/A,,Mostly Cloudy,330,2013-02-16 11:55:00
7:15 AM,24.8,19.4,80,29.91,10.0,Calm,Calm,-,N/A,,Scattered Clouds,0,2013-02-16 12:15:00
7:35 AM,24.8,17.6,74,29.91,10.0,WNW,5.8,-,N/A,,Scattered Clouds,290,2013-02-16 12:35:00
7:55 AM,24.8,17.6,74,29.91,10.0,NNW,4.6,-,N/A,,Mostly Cloudy,340,2013-02-16 12:55:00
8:35 AM,24.8,15.8,69,29.91,10.0,NNW,8.1,-,N/A,,Overcast,330,2013-02-16 13:35:00
8:55 AM,24.8,15.8,69,29.91,10.0,NNW,8.1,-,N/A,,Mostly Cloudy,340,2013-02-16 13:55:00
9:15 AM,24.8,14.0,64,29.91,10.0,NNW,8.1,-,N/A,,Mostly Cloudy,340,2013-02-16 14:15:00
9:35 AM,24.8,14.0,64,29.91,10.0,North,8.1,-,N/A,,Overcast,350,2013-02-16 14:35:00
9:55 AM,23.0,14.0,68,29.91,10.0,North,9.2,-,N/A,,Overcast,0,2013-02-16 14:55:00
10:15 AM,23.0,14.0,68,29.91,10.0,North,9.2,-,N/A,,Overcast,350,2013-02-16 15:15:00
10:35 AM,24.8,12.2,59,29.90,10.0,NW,8.1,-,N/A,,Overcast,320,2013-02-16 15:35:00
1:15 PM,26.6,10.4,51,29.86,10.0,NW,9.2,-,N/A,,Overcast,310,2013-02-16 18:15:00
1:35 PM,26.6,10.4,51,29.85,10.0,NNW,9.2,-,N/A,,Overcast,330,2013-02-16 18:35:00
1:55 PM,26.6,10.4,51,29.84,10.0,NW,5.8,-,N/A,,Overcast,310,2013-02-16 18:55:00
2:15 PM,24.8,10.4,54,29.85,10.0,NNW,8.1,-,N/A,,Overcast,340,2013-02-16 19:15:00
2:35 PM,24.8,10.4,54,29.85,10.0,NW,8.1,-,N/A,,Overcast,320,2013-02-16 19:35:00
2:55 PM,24.8,10.4,54,29.86,10.0,NNW,6.9,-,N/A,,Overcast,340,2013-02-16 19:55:00
3:15 PM,26.6,8.6,47,29.85,10.0,NNW,10.4,-,N/A,,Overcast,330,2013-02-16 20:15:00
3:35 PM,26.6,6.8,43,29.84,10.0,WNW,8.1,16.1,N/A,,Mostly Cloudy,300,2013-02-16 20:35:00
3:55 PM,26.6,6.8,43,29.85,10.0,NNW,10.4,-,N/A,,Overcast,330,2013-02-16 20:55:00
4:15 PM,24.8,8.6,50,29.84,10.0,NW,11.5,-,N/A,,Overcast,320,2013-02-16 21:15:00
4:35 PM,24.8,8.6,50,29.86,10.0,NW,8.1,16.1,N/A,,Mostly Cloudy,320,2013-02-16 21:35:00
4:55 PM,24.8,12.2,59,29.86,10.0,NNW,9.2,-,N/A,Snow,Light Snow,340,2013-02-16 21:55:00
5:15 PM,23.0,12.2,63,29.86,4.0,NW,10.4,18.4,N/A,Snow,Light Snow,320,2013-02-16 22:15:00
5:35 PM,23.0,10.4,59,29.86,10.0,NNW,8.1,-,N/A,,Mostly Cloudy,340,2013-02-16 22:35:00
5:55 PM,23.0,12.2,63,29.86,10.0,NNW,8.1,-,N/A,Snow,Light Snow,340,2013-02-16 22:55:00
6:15 PM,21.2,12.2,68,29.87,10.0,NNW,6.9,-,N/A,,Overcast,330,2013-02-16 23:15:00
6:35 PM,21.2,10.4,63,29.87,10.0,NW,4.6,-,N/A,,Scattered Clouds,320,2013-02-16 23:35:00
6:55 PM,21.2,10.4,63,29.87,10.0,NW,10.4,-,N/A,,Clear,320,2013-02-16 23:55:00
7:15 PM,21.2,10.4,63,29.87,10.0,NW,6.9,-,N/A,,Scattered Clouds,320,2013-02-17 00:15:00
7:35 PM,19.4,10.4,68,29.87,10.0,NNW,8.1,-,N/A,,Clear,340,2013-02-17 00:35:00
7:55 PM,21.2,10.4,63,29.87,10.0,NNW,4.6,-,N/A,,Scattered Clouds,330,2013-02-17 00:55:00
8:15 PM,19.4,10.4,68,29.87,10.0,NNW,4.6,-,N/A,,Scattered Clouds,330,2013-02-17 01:15:00
8:35 PM,19.4,10.4,68,29.87,10.0,NW,4.6,-,N/A,,Clear,310,2013-02-17 01:35:00
8:55 PM,19.4,8.6,63,29.87,10.0,Calm,Calm,-,N/A,,Clear,0,2013-02-17 01:55:00
9:15 PM,19.4,10.4,68,29.87,10.0,Calm,Calm,-,N/A,,Clear,0,2013-02-17 02:15:00
9:55 PM,19.4,10.4,68,29.87,10.0,Calm,Calm,-,N/A,,Scattered Clouds,0,2013-02-17 02:55:00
10:15 PM,17.6,10.4,73,29.87,10.0,Calm,Calm,-,N/A,,Mostly Cloudy,0,2013-02-17 03:15:00
10:35 PM,19.4,10.4,68,29.87,10.0,West,3.5,-,N/A,,Mostly Cloudy,260,2013-02-17 03:35:00
10:55 PM,19.4,12.2,74,29.87,7.0,WNW,5.8,-,N/A,Snow,Light Snow,290,2013-02-17 03:55:00
11:15 PM,17.6,14.0,86,29.86,1.5,WNW,4.6,-,N/A,Snow,Light Snow,300,2013-02-17 04:15:00
11:35 PM,17.6,14.0,86,29.87,2.5,NW,6.9,-,N/A,Snow,Light Snow,320,2013-02-17 04:35:00
11:55 PM,17.6,12.2,79,29.87,1.5,NNW,9.2,-,N/A,Snow,Light Snow,330,2013-02-17 04:55:00